Lid_Strength_Index
1 0 0 0 0 0 0 1 3 3 3 4 4 4 4 2 2 1 1 1 1 1 0 0 1 0 2 1 1 1 2 2 4 3 2 2 3 4 3 3 3 3 3
0 0 0 0 0 0 0 0 -0 2 3 4 4 3 2 1 1 1 1 1 1 2 1 1 1 1 0 0 1 1 1 1 4 5 5 5 4 3 4 4 5 5 5
1 1 0 0 0 1 0 -0 -0 -0 -0 -0 0 1 1 0 1 1 1 1 2 2 1 1 1 0 0 1 1 1 1 2 3 4 6 5 6 5 6 6 6 4 4
1 1 1 1 1 0 0 -0 -0 -0 -0 -0 -0 0 1 1 1 1 1 0 1 1 1 1 1 1 1 2 3 3 4 6 6 8 9 8 7 6 6 7 7 4 4
1 1 1 1 -0 -0 -0 0 -0 -0 -0 0 0 0 0 1 4 2 0 1 1 1 1 2 2 3 5 4 5 7 7 9 9 10 10 9 8 8 8 6 5 4 3
1 1 1 1 0 -0 0 0 0 0 0 -0 0 1 1 4 8 7 5 2 2 3 3 3 3 3 5 6 7 7 7 8 9 9 9 10 9 8 7 6 6 4 7
1 1 1 1 2 1 0 0 0 1 -0 0 0 1 2 4 8 9 8 3 3 4 5 5 5 5 6 7 8 8 8 8 7 7 8 8 7 6 6 7 7 7 6
1 1 1 1 1 1 1 1 1 0 1 1 2 2 3 6 9 10 9 4 4 5 5 6 6 7 7 8 8 8 8 6 6 6 6 5 5 5 5 5 6 6 5
1 1 1 1 2 2 2 2 2 2 1 2 3 3 3 5 10 10 9 4 4 5 5 7 6 7 9 9 7 8 8 7 6 5 6 6 6 7 6 6 7 7 7
1 1 1 1 1 2 2 3 2 2 3 3 3 3 6 6 11 10 8 4 5 6 6 6 8 9 9 9 7 8 8 7 6 6 7 6 6 5 5 4 5 7 7
0 1 1 3 3 3 3 2 2 2 2 3 3 4 6 7 9 9 8 6 7 7 8 8 8 9 9 8 7 6 7 7 8 8 7 6 6 6 5 4 4 5 7
1 3 3 4 4 3 3 2 3 2 4 4 3 4 5 6 8 8 9 9 8 8 8 8 7 8 9 8 7 8 8 8 8 7 6 7 6 6 5 5 4 4 4
3 5 5 6 7 6 5 5 5 4 4 5 6 5 6 6 6 8 8 9 9 8 7 8 9 9 9 8 9 9 8 8 7 6 7 8 8 7 6 5 5 4 4
4 5 5 7 8 7 6 6 6 6 5 5 6 6 6 7 7 8 8 7 8 7 8 8 9 9 9 9 8 7 6 6 6 7 8 8 8 7 7 6 6 5 5
5 6 8 8 8 9 10 9 8 8 8 6 6 6 7 9 9 10 9 8 8 9 9 8 9 9 10 9 8 8 7 7 7 7 8 9 7 7 7 6 6 5 6
5 6 7 7 8 8 8 9 11 11 11 10 10 9 8 10 10 10 9 9 10 10 9 10 10 10 10 9 9 10 8 8 8 9 8 8 8 8 7 6 5 6 7
5 6 7 8 7 6 5 5 8 10 10 10 10 11 10 10 10 9 9 10 10 9 9 10 10 10 10 10 10 10 10 9 8 7 6 7 7 7 8 7 7 7 7
7 8 5 7 6 4 4 5 5 5 7 8 10 10 10 10 10 9 9 9 8 8 9 9 9 9 9 10 9 9 8 8 6 5 6 7 7 7 7 7 7 7 7
6 6 6 5 4 5 5 3 4 6 8 9 8 8 8 9 9 9 9 6 7 9 9 9 9 9 10 9 9 8 7 5 5 6 6 7 7 7 7 7 8 11 9
7 9 7 4 4 4 3 4 6 8 9 8 8 7 7 7 7 7 7 8 8 9 9 9 9 9 9 8 8 8 7 7 8 8 8 7 6 6 7 7 7 8 9
5 4 10 4 3 3 4 5 7 9 9 8 7 8 13 7 7 7 7 7 7 7 7 8 8 8 8 8 8 8 8 7 7 7 6 6 6 6 6 7 7 8 8
3 5 5 3 3 4 5 7 8 9 8 7 7 7 11 7 7 7 6 6 6 6 6 6 6 7 7 7 8 7 8 8 7 6 6 5 6 6 6 6 6 7 7
5 5 4 3 4 7 6 7 9 9 8 8 7 6 6 7 7 8 8 7 6 5 5 5 5 6 6 6 7 7 6 5 4 4 5 5 5 5 6 6 6 7 7
5 5 3 4 5 6 6 9 9 11 8 7 6 6 6 8 8 8 7 6 5 4 4 4 4 6 6 5 2 2 3 3 2 3 3 4 4 5 5 5 6 5 5
6 4 4 5 6 6 7 9 9 9 8 7 6 6 6 8 8 8 6 5 5 5 4 3 4 4 3 3 3 3 9 13 5 10 2 3 3 3 4 3 4 4 4
5 4 4 6 6 6 7 9 9 9 8 7 6 6 6 7 6 5 5 6 6 6 5 3 3 3 4 3 4 11 13 13 8 12 3 3 3 3 4 4 4 4 5